DL1MMS-10 Weather Reports


Display with metric or nautical units.
time (UTC)temp
F
wind
direction
speed
MPH
gust
MPH
rain 1hr
in
rain 24hr
in
rain mn
in
humidity
%
barometer
mb
20260504173151 68 0 0.0 0.0 0.00 0.00 0.00 46 1012.9
20260504172651 68 0 0.0 0.0 0.00 0.00 0.00 46 1012.7
20260504172150 69 0 0.0 0.0 0.00 0.00 0.00 45 1012.7
20260504171650 69 0 0.0 0.0 0.00 0.00 0.00 45 1012.9
20260504171150 69 0 0.0 0.0 0.00 0.00 0.00 44 1012.7
20260504170649 69 0 0.0 0.0 0.00 0.00 0.00 44 1012.6
20260504170149 69 0 0.0 0.0 0.00 0.00 0.00 43 1012.7
20260504160146 74 0 0.0 0.0 0.00 0.00 0.00 39 1012.8
20260504151143 78 0 0.0 0.0 0.00 0.00 0.00 32 1012.9
20260504150643 79 0 0.0 0.0 0.00 0.00 0.00 31 1012.9
20260504150142 79 0 0.0 0.0 0.00 0.00 0.00 31 1012.7
20260504141140 93 0 0.0 0.0 0.00 0.00 0.00 25 1012.9
20260504140639 92 0 0.0 0.0 0.00 0.00 0.00 26 1013.1
20260504140139 91 0 0.0 0.0 0.00 0.00 0.00 28 1013.2
20260504130636 84 0 0.0 0.0 0.00 0.00 0.00 30 1013.5
20260504130136 84 0 0.0 0.0 0.00 0.00 0.00 29 1013.6
20260504120132 88 0 0.0 0.0 0.00 0.00 0.00 28 1013.7
20260504110629 87 0 0.0 0.0 0.00 0.00 0.00 29 1013.9
20260504110129 86 0 0.0 0.0 0.00 0.00 0.00 29 1014.1
20260504100125 74 0 0.0 0.0 0.00 0.00 0.00 41 1014.8
20260504090122 67 0 0.0 0.0 0.00 0.00 0.00 47 1015.3
20260504081619 64 0 0.0 0.0 0.00 0.00 0.00 51 1015.9
20260504081119 65 0 0.0 0.0 0.00 0.00 0.00 51 1015.9
20260504080619 64 0 0.0 0.0 0.00 0.00 0.00 52 1015.9
20260504080119 64 0 0.0 0.0 0.00 0.00 0.00 51 1015.9
20260504070115 58 0 0.0 0.0 0.00 0.00 0.00 65 1015.9
20260504060112 51 0 0.0 0.0 0.00 0.00 0.00 75 1016.2
20260504050609 47 0 0.0 0.0 0.00 0.00 0.00 75 1016.1
20260504050108 47 0 0.0 0.0 0.00 0.00 0.00 75 1016.2
20260504045608 47 0 0.0 0.0 0.00 0.00 0.00 75 1016.3
20260504045108 47 0 0.0 0.0 0.00 0.00 0.00 75 1016.3
20260504044608 47 0 0.0 0.0 0.00 0.00 0.00 75 1016.4
20260504044107 47 0 0.0 0.0 0.00 0.00 0.00 75 1016.4
20260504043607 47 0 0.0 0.0 0.00 0.00 0.00 75 1016.4
20260504043107 47 0 0.0 0.0 0.00 0.00 0.00 75 1016.2
20260504042606 47 0 0.0 0.0 0.00 0.00 0.00 75 1016.2
20260504042106 47 0 0.0 0.0 0.00 0.00 0.00 75 1016.2
20260504041606 47 0 0.0 0.0 0.00 0.00 0.00 75 1016.1
20260504041106 47 0 0.0 0.0 0.00 0.00 0.00 75 1016.2
20260504040605 47 0 0.0 0.0 0.00 0.00 0.00 75 1016.1
20260504040105 47 0 0.0 0.0 0.00 0.00 0.00 74 1016.2
20260504035605 47 0 0.0 0.0 0.00 0.00 0.00 73 1016.3
20260504035104 48 0 0.0 0.0 0.00 0.00 0.00 73 1016.3
20260504034604 48 0 0.0 0.0 0.00 0.00 0.00 73 1016.3
20260504034104 48 0 0.0 0.0 0.00 0.00 0.00 73 1016.4
20260504033604 48 0 0.0 0.0 0.00 0.00 0.00 73 1016.4
20260504033103 49 0 0.0 0.0 0.00 0.00 0.00 72 1016.4
20260504032603 49 0 0.0 0.0 0.00 0.00 0.00 71 1016.4
20260504032103 49 0 0.0 0.0 0.00 0.00 0.00 71 1016.5
20260504031602 49 0 0.0 0.0 0.00 0.00 0.00 71 1016.4
20260504031102 49 0 0.0 0.0 0.00 0.00 0.00 71 1016.4
20260504030602 50 0 0.0 0.0 0.00 0.00 0.00 70 1016.4
20260504025601 50 0 0.0 0.0 0.00 0.00 0.00 69 1016.4
20260504025101 51 0 0.0 0.0 0.00 0.00 0.00 70 1016.4
20260504024601 51 0 0.0 0.0 0.00 0.00 0.00 69 1016.4
20260504024100 51 0 0.0 0.0 0.00 0.00 0.00 69 1016.4
20260504023600 51 0 0.0 0.0 0.00 0.00 0.00 69 1016.5
20260504023100 51 0 0.0 0.0 0.00 0.00 0.00 69 1016.6
20260504022600 51 0 0.0 0.0 0.00 0.00 0.00 69 1016.6
20260504022059 51 0 0.0 0.0 0.00 0.00 0.00 69 1016.6
20260504021559 51 0 0.0 0.0 0.00 0.00 0.00 69 1016.5
20260504021059 51 0 0.0 0.0 0.00 0.00 0.00 69 1016.6
20260504020559 51 0 0.0 0.0 0.00 0.00 0.00 69 1016.5
20260504020058 51 0 0.0 0.0 0.00 0.00 0.00 69 1016.5
20260504015558 51 0 0.0 0.0 0.00 0.00 0.00 68 1016.5
20260504015058 51 0 0.0 0.0 0.00 0.00 0.00 68 1016.6
20260504014557 51 0 0.0 0.0 0.00 0.00 0.00 69 1016.5
20260504014057 51 0 0.0 0.0 0.00 0.00 0.00 69 1016.4
20260504013557 51 0 0.0 0.0 0.00 0.00 0.00 69 1016.5
20260504013057 51 0 0.0 0.0 0.00 0.00 0.00 69 1016.4
20260504012556 51 0 0.0 0.0 0.00 0.00 0.00 69 1016.5
20260504012056 51 0 0.0 0.0 0.00 0.00 0.00 69 1016.7
20260504011556 51 0 0.0 0.0 0.00 0.00 0.00 69 1016.8
20260504011055 51 0 0.0 0.0 0.00 0.00 0.00 69 1016.8
20260504010555 51 0 0.0 0.0 0.00 0.00 0.00 68 1016.8
20260504010055 51 0 0.0 0.0 0.00 0.00 0.00 68 1016.8
20260504005555 52 0 0.0 0.0 0.00 0.00 0.00 67 1017.0
20260504005054 52 0 0.0 0.0 0.00 0.00 0.00 67 1016.9
20260504004554 52 0 0.0 0.0 0.00 0.00 0.00 66 1016.9
20260504004054 52 0 0.0 0.0 0.00 0.00 0.00 66 1017.0
20260504003553 52 0 0.0 0.0 0.00 0.00 0.00 65 1016.9
20260504003053 52 0 0.0 0.0 0.00 0.00 0.00 64 1016.9
20260504002553 53 0 0.0 0.0 0.00 0.00 0.00 64 1017.0
20260504002053 53 0 0.0 0.0 0.00 0.00 0.00 63 1016.8
20260504001552 53 0 0.0 0.0 0.00 0.00 0.00 63 1016.9
20260504001052 53 0 0.0 0.0 0.00 0.00 0.00 63 1016.9
20260504000552 53 0 0.0 0.0 0.00 0.00 0.00 63 1016.9
20260504000051 53 0 0.0 0.0 0.00 0.00 0.00 63 1016.8
20260503235551 53 0 0.0 0.0 0.00 0.00 0.00 62 1016.8
20260503235051 53 0 0.0 0.0 0.00 0.00 0.00 62 1016.7
20260503234551 54 0 0.0 0.0 0.00 0.00 0.00 62 1016.8
20260503234050 54 0 0.0 0.0 0.00 0.00 0.00 61 1016.9
20260503233550 54 0 0.0 0.0 0.00 0.00 0.00 60 1017.2
20260503233050 55 0 0.0 0.0 0.00 0.00 0.00 60 1017.1
20260503232549 55 0 0.0 0.0 0.00 0.00 0.00 60 1017.1
20260503232049 55 0 0.0 0.0 0.00 0.00 0.00 59 1017.1
20260503231549 56 0 0.0 0.0 0.00 0.00 0.00 58 1017.2
20260503231049 56 0 0.0 0.0 0.00 0.00 0.00 58 1017.2
20260503230548 56 0 0.0 0.0 0.00 0.00 0.00 58 1017.1
20260503230048 56 0 0.0 0.0 0.00 0.00 0.00 58 1016.9
20260503225548 56 0 0.0 0.0 0.00 0.00 0.00 58 1016.9
20260503225047 56 0 0.0 0.0 0.00 0.00 0.00 57 1016.8
20260503224547 56 0 0.0 0.0 0.00 0.00 0.00 57 1016.7
20260503224047 56 0 0.0 0.0 0.00 0.00 0.00 57 1016.7
20260503223547 56 0 0.0 0.0 0.00 0.00 0.00 57 1016.7
20260503223046 56 0 0.0 0.0 0.00 0.00 0.00 57 1016.7
20260503222546 56 0 0.0 0.0 0.00 0.00 0.00 57 1016.6
20260503222046 56 0 0.0 0.0 0.00 0.00 0.00 57 1016.6
20260503221545 57 0 0.0 0.0 0.00 0.00 0.00 57 1016.6
20260503221045 57 0 0.0 0.0 0.00 0.00 0.00 57 1016.5
20260503220545 57 0 0.0 0.0 0.00 0.00 0.00 56 1016.4
20260503220045 57 0 0.0 0.0 0.00 0.00 0.00 56 1016.4
20260503215544 57 0 0.0 0.0 0.00 0.00 0.00 56 1016.3
20260503215044 57 0 0.0 0.0 0.00 0.00 0.00 56 1016.3
20260503214544 57 0 0.0 0.0 0.00 0.00 0.00 55 1016.2
20260503214043 57 0 0.0 0.0 0.00 0.00 0.00 55 1016.2
20260503213543 58 0 0.0 0.0 0.00 0.00 0.00 55 1016.1
20260503213043 58 0 0.0 0.0 0.00 0.00 0.00 54 1016.1
20260503212543 58 0 0.0 0.0 0.00 0.00 0.00 54 1016.2
20260503212042 58 0 0.0 0.0 0.00 0.00 0.00 53 1016.0
20260503211542 58 0 0.0 0.0 0.00 0.00 0.00 53 1016.1
20260503211042 58 0 0.0 0.0 0.00 0.00 0.00 53 1016.0
20260503210542 59 0 0.0 0.0 0.00 0.00 0.00 53 1015.9
20260503210041 59 0 0.0 0.0 0.00 0.00 0.00 52 1015.8
20260503205541 59 0 0.0 0.0 0.00 0.00 0.00 52 1015.9
20260503205041 59 0 0.0 0.0 0.00 0.00 0.00 52 1015.8
20260503204540 59 0 0.0 0.0 0.00 0.00 0.00 52 1015.7
20260503204040 60 0 0.0 0.0 0.00 0.00 0.00 51 1016.0
20260503203540 60 0 0.0 0.0 0.00 0.00 0.00 51 1015.9
20260503203040 60 0 0.0 0.0 0.00 0.00 0.00 51 1015.7
20260503202539 60 0 0.0 0.0 0.00 0.00 0.00 51 1015.7
20260503202039 60 0 0.0 0.0 0.00 0.00 0.00 51 1015.7
20260503201539 60 0 0.0 0.0 0.00 0.00 0.00 51 1015.6
20260503201038 61 0 0.0 0.0 0.00 0.00 0.00 51 1015.5
20260503200538 61 0 0.0 0.0 0.00 0.00 0.00 51 1015.4
20260503200038 61 0 0.0 0.0 0.00 0.00 0.00 51 1015.5
20260503195538 61 0 0.0 0.0 0.00 0.00 0.00 50 1015.4
20260503195037 61 0 0.0 0.0 0.00 0.00 0.00 50 1015.3
20260503194537 61 0 0.0 0.0 0.00 0.00 0.00 51 1015.1
20260503194037 60 0 0.0 0.0 0.00 0.00 0.00 51 1015.1
20260503193536 60 0 0.0 0.0 0.00 0.00 0.00 51 1014.9
20260503193036 60 0 0.0 0.0 0.00 0.00 0.00 51 1015.1
20260503192536 60 0 0.0 0.0 0.00 0.00 0.00 51 1015.0
20260503192036 61 0 0.0 0.0 0.00 0.00 0.00 50 1014.7
20260503191535 61 0 0.0 0.0 0.00 0.00 0.00 50 1014.6
20260503191035 61 0 0.0 0.0 0.00 0.00 0.00 50 1014.6
20260503190535 62 0 0.0 0.0 0.00 0.00 0.00 49 1014.6
20260503190034 62 0 0.0 0.0 0.00 0.00 0.00 49 1014.5
20260503185534 63 0 0.0 0.0 0.00 0.00 0.00 48 1014.4
20260503185034 64 0 0.0 0.0 0.00 0.00 0.00 47 1014.5
20260503184534 64 0 0.0 0.0 0.00 0.00 0.00 45 1014.5
20260503184033 65 0 0.0 0.0 0.00 0.00 0.00 45 1014.3
20260503183533 66 0 0.0 0.0 0.00 0.00 0.00 43 1014.2
20260503183033 66 0 0.0 0.0 0.00 0.00 0.00 42 1014.3
20260503182532 67 0 0.0 0.0 0.00 0.00 0.00 41 1014.4
20260503182032 68 0 0.0 0.0 0.00 0.00 0.00 40 1014.2
20260503181532 69 0 0.0 0.0 0.00 0.00 0.00 38 1014.2
20260503181032 69 0 0.0 0.0 0.00 0.00 0.00 36 1014.2
20260503180531 70 0 0.0 0.0 0.00 0.00 0.00 35 1014.3
20260503180031 71 0 0.0 0.0 0.00 0.00 0.00 33 1014.2
20260503175531 71 0 0.0 0.0 0.00 0.00 0.00 32 1014.2
20260503175030 72 0 0.0 0.0 0.00 0.00 0.00 31 1014.2
20260503174530 72 0 0.0 0.0 0.00 0.00 0.00 30 1014.1
20260503174030 73 0 0.0 0.0 0.00 0.00 0.00 30 1014.1
20260503173530 74 0 0.0 0.0 0.00 0.00 0.00 29 1014.0